Regional Weather Roundup
Issued by NWS

Home | Current Version | Previous Version | Graphics & Text | Print | Product List | Glossary On
Versions: 1 2 3 4 5 6 7 8 9 10 11 12 13 14 15 16 17 18 19 20 21 22 23 24 25 26 27
000
ASUS45 KBOU 240706
RWRCO

WEATHER ROUNDUP FOR COLORADO
NATIONAL WEATHER SERVICE DENVER/BOULDER CO
100 AM MDT THU APR 24 2014

NOTE: "FAIR" INDICATES FEW OR NO CLOUDS BELOW 12000 FEET WITH NO
SIGNIFICANT WEATHER AND/OR OBSTRUCTIONS TO VISIBILITY.

COZ001>005-013-030-031-240800-
...NORTHWEST COLORADO...

CITY           SKY/WX    TMP DP  RH WIND       PRES   REMARKS
CRAIG          CLEAR     30  16  56 W3        30.09R
HAYDEN         CLEAR     30  12  47 W6        30.10R WCI  24
MEEKER         CLEAR     28  15  58 CALM      30.09R
MOUNT WERNER   CLOUDY    21  10  63 W17G23    30.06R WCI   7
STEAMBOAT SPGS CLOUDY    30  14  51 S3        30.07R
WALDEN         PTCLDY    27  10  50 W6        30.03F WCI  20
$$

COZ006>008-011-240800-
...WEST CENTRAL VALLEYS...

CITY           SKY/WX    TMP DP  RH WIND       PRES   REMARKS
GRAND JUNCTION CLEAR     37  12  35 CALM      30.06R
MONTROSE       CLEAR     34  16  47 SE8       30.09R WCI  27
EAGLE          CLEAR     32  16  51 CALM      30.09R
RIFLE          CLEAR     41  11  29 NW8       30.07R
DELTA          NOT AVBL
NUCLA          NOT AVBL
$$

COZ017>023-064>068-240800-
...SOUTHWEST COLORADO...

CITY           SKY/WX    TMP DP  RH WIND       PRES   REMARKS
DURANGO        CLEAR     40   9  28 N15       30.01R
CORTEZ         CLEAR     35  13  40 NE7       30.05R WCI  29
PAGOSA SPRINGS CLEAR     36   9  32 NW8       30.01R
TELLURIDE      NOT AVBL
WOLF CREEK PAS CLEAR     18   3  53 NW3       30.07R
$$

COZ009-010-012-014-032>034-037-058>063-240800-
...CENTRAL COLORADO...

CITY           SKY/WX    TMP DP  RH WIND       PRES   REMARKS
ASPEN          PTCLDY    33  13  43 CALM      30.05R
BUENA VISTA    PTCLDY    36   8  32 W10       29.99R
COPPER MTN     MOCLDY    18  10  73 W17G23    30.05R WCI   2
BERTHOUD PASS  FAIR       9   0  66 NW40G48   29.94R WCI -17
COTTONWOOD PAS PTCLDY    32   9  37 W15G26    30.00R WCI  22
GUNNISON       CLEAR     30   7  37 W8        30.07R WCI  23
KREMMLING      CLEAR     32   9  37 SW3       30.07R
LEADVILLE      PTCLDY    23  11  60 N6        30.02S WCI  16
MONARCH PASS   CLEAR     18   9  68 W23G30    30.11S WCI   0
SALIDA         PTCLDY    41  10  28 NW12      30.05R
SUNLIGHT       CLEAR     23  12  63 CALM      30.11R
WILKERSON PASS PTCLDY    21  10  63 NW8G16    30.02S WCI  12
$$

COZ069>075-240800-
...SAN LUIS VALLEY/SANGRE DE CRISTO MOUNTAINS...

CITY           SKY/WX    TMP DP  RH WIND       PRES   REMARKS
ALAMOSA        CLEAR     39  12  33 N21       29.99R
LA VETA PASS   MOCLDY    28  14  54 W3        30.01R
SAGUACHE       CLEAR     34   7  32 NW7       30.01R WCI  28
$$

COZ035-036-038>040-240800-
...NORTHERN COLORADO FRONT RANGE...

CITY           SKY/WX    TMP DP  RH WIND       PRES   REMARKS
DENVER INTL AP CLOUDY    42  31  64 CALM      29.93R
DMNS CITY PARK   N/A     41  37  87 S8G15     29.94S
AURORA         MOCLDY    39  36  87 SW6       29.94S
FRONT RANGE AP NOT AVBL
ERIE MUNI ARPT MOCLDY    42  38  85 SW5       29.93S
BOULDER MUN AP MOCLDY    41  37  87 N3        29.93R
CENTENNIAL     MOCLDY    37  36  96 SW7       29.95S
BROOMFIELD     MOCLDY    39  36  87 SE6       29.93F
FORT COLLINS   CLOUDY    45  12  26 N24G30    29.96R
LONGMONT       NOT AVBL
$$

COZ041-046-047-076>085-087-088-240800-
...PIKES PEAK/PALMER DIVIDE AND SOUTHERN FOOTHILLS...

CITY           SKY/WX    TMP DP  RH WIND       PRES   REMARKS
COLO. SPRINGS  CLOUDY    38  30  73 N13       29.97R
A. F. ACADEMY  LGT SNOW  34  32  93 N13       29.97R FOG     WCI  25
ELLICOTT       NOT AVBL
FALCON         CLOUDY    33  32  94 N17G24    29.95R WCI  23
FORT CARSON    CLOUDY    40  32  71 N18G24    29.94R
LIMON          CLOUDY    37  33  85 NW9       29.92R
MONUMENT HILL  CLOUDY    32  32 100 N5        29.95S WCI  27
TRINIDAD       MOCLDY    42  35  76 NE10      29.95R
$$

COZ042>045-048>051-090-091-240800-
...NORTHEAST COLORADO...

CITY           SKY/WX    TMP DP  RH WIND       PRES   REMARKS
GREELEY ARPT   CLOUDY    46  10  23 N18       29.95R
AKRON          CLOUDY    47  18  31 NW32G41   29.86S
BURLINGTON     CLOUDY    49  27  42 N25G40    29.87R
WRAY           CLOUDY    56  17  21 NW12G17   29.82F
STERLING       NOT AVBL
HOLYOKE        NOT AVBL
FORT MORGAN    NOT AVBL
$$

COZ086-089-092>099-240800-
...SOUTHEAST COLORADO...

CITY           SKY/WX    TMP DP  RH WIND       PRES   REMARKS
PUEBLO         CLOUDY    44  33  65 N25G35    29.92R
LA JUNTA       LGT RAIN  43  38  82 NE38G52   29.89F
LAMAR          CLOUDY    48  33  56 N30G44    29.88R
SPRINGFIELD      N/A     46  33  60 N33G41    29.85R
$$



USA.gov is the U.S. government's official web portal to all federal, state and local government web resources and services.